Quantcast
Maps Points of Interest Search F.A.Q. Tutorial Download Forums About us

Chardok - (Entrance)

Enter a custom location to show on the map:
custom loc    
72 POI's in Chardok - (Entrance)
UID Name Type /Loc Submitter Date
68877 The Runes of Gor Quest update location 207.39, -72.97, 92.21 Pijotre 01/15/19
68844 Gate access control Object location 98.18, -44.64, 190.81 Pijotre 01/12/19
68843 Gate access control Object location 112.51, -47.17, 175.55 Pijotre 01/12/19
68839 a barracks servant Monster Heroic 133.46, -54.97, 68.99 Pijotre 01/12/19
68838 The Barracks of Caroeth Site 189.75, -59.34, 107.71 Pijotre 01/12/19
68837 Gaodon <The Shackle Keeper> Monster Named -52.66, -54.45, 49.93 Pijotre 01/12/19
68836 Silzok Foi'zarth <The Master Animator> Monster Named -89.76, -43.43, 57.07 Pijotre 01/12/19
68835 The Hall of Clay Site -99.52, -43.43, 43.14 Pijotre 01/12/19
68834 Gate access control Object location -236.54, -58.62, 9.59 Pijotre 01/12/19
68833 Gate access control Object location -254.77, -64.03, -1.36 Pijotre 01/12/19
68832 Nak'azar Cavern Site -524.68, -66.74, -65.72 Pijotre 01/12/19
68831 The Crossbridge Tower Site -460.81, -66.07, 8.70 Pijotre 01/12/19
68830 The Water Chamber Site -514.51, -85.66, -314.92 Pijotre 01/12/19
68829 The Rhinoceros Pen Site -364.14, -49.19, -401.40 Pijotre 01/12/19
68828 Gate access control Object location -260.52, -40.80, -352.90 Pijotre 01/12/19
68827 Gate access control Object location -237.69, -36.69, -348.72 Pijotre 01/12/19
68826 To Kylong Plains Zone 212.33, 12.14, -666.46 Pijotre 01/12/19
65063 Warlord Kilrok Caroeth <The Caroeth Brigade> Monster Named 201.85, -72.91, 73.71 Adaefia 05/26/17
60798 Insta-Fizz Fuzzlecutter Object location -546.44, -68.47, 241.38 FieryArcher 11/15/13
58470 Totem of Iar'Xis Quest update location -429.31, -127.14, -47.00 Ventnoir 10/21/12
58469 Totem of Iar'Efiv Quest update location -419.19, -65.71, 30.69 Ventnoir 10/21/12
58468 Totem of Iar'Rofu Quest update location -419.20, -65.61, -17.19 Ventnoir 10/21/12
57253 Ewer Object location -513.43, -87.31, -359.43 jhogan1975 05/11/12
57252 Blasting Keg Object location -548.43, -85.66, -337.03 jhogan1975 05/11/12
56095 The Bridge Keeper Monster Named -434.34, -66.07, -27.74 ultramagnuss 02/27/12
56080 a Caroeth gatekeeper Monster Heroic 203.03, -72.95, 89.32 uberfuzzy 02/25/12
55977 A Drenched Zombie Swash Epic Monster Solo -482.79, -85.66, -335.77 Galicus 02/13/12
54611 Totem of Iar'Ethre Quest update location -74.05, -18.56, -281.03 Liandra 06/19/11
54609 Totem of Iar'Owt Quest update location -95.73, -18.56, -307.91 Liandra 06/19/11
54607 Totem of Ian'Eno Quest update location -73.54, -18.28, -319.90 Liandra 06/19/11
53976 The Barracks of Bathezid Site -282.02, -20.44, -490.02 Lera 03/27/11
53975 a Bathezid aerodrome sentry Monster Heroic 28.95, -29.78, -328.05 Lera 03/27/11
53974 The Aerodrome Site -56.31, -19.63, -300.78 Lera 03/27/11
53973 The Wind Chamber Site 80.26, 4.37, -506.58 Lera 03/27/11
52645 a Caroeth ridgeguard assassin Monster Heroic 160.50, -27.43, 219.21 Prrfect 01/20/11
52644 a Caroeth ridgeguard assassin Monster Heroic 101.00, -48.01, 31.65 Prrfect 01/20/11
49656 a Nak'azar gatekeeper Monster Heroic -409.02, -66.39, 19.20 Jacu 03/23/10
47480 Insta-Fizz Fuzzlecutter Object location -5.00, -58.00, 83.00 Lethiana 11/04/09
44683 a syrrup barrel Object location 141.00, -55.00, 67.00 1stop4 10/17/09
42886 Caroeth gate Cave entrance 105.53, -45.86, 183.27 mulder09 05/27/09
39968 Insta-Fizz Fuzzlecutter Object location -440.67, -87.02, 13.55 Lethiana 12/13/08
38934 Insta-Fizz Fuzzlecutter Quest update location -422.00, -115.00, 15.00 Lethiana 11/19/08
38879 Insta-Fizz Fuzzlecutter Quest update location -87.00, -43.00, 63.00 Lethiana 11/19/08
38878 Insta-Fizz Fuzzlercutter Quest update location -299.00, -20.00, -539.00 Lethiana 11/19/08
38877 Insta-Fizz Fuzzlecutter Quest update location -356.00, -17.00, -548.00 Lethiana 11/19/08
38876 Insta-Fizz Fuzzlecutter Quest update location -334.00, -17.00, -563.00 Lethiana 11/19/08
35440 The Chardok Trampler Monster Named -440.00, -67.00, -240.00 shiromvp 06/27/08
35407 The Reservoir Defender Monster Named -515.00, -87.00, -331.00 shiromvp 06/23/08
35028 Master Skyrider Koonzid Monster Named -74.67, -17.10, -300.80 shiromvp 04/12/08
35009 Wildhorn the Rampager Monster Named -372.06, -55.85, -358.50 Aeudian 04/06/08
34727 Bathezid gate Cave entrance -248.93, -38.97, -350.35 Phlix 02/22/08
34678 Hand of the Metal God Object location -34.00, -54.00, 40.00 mschaos 02/14/08
34677 Eye of Gorowyn Object location -391.00, -103.00, -2.00 mschaos 02/14/08
34676 Flame of Shazzuk Object location 32.00, -23.00, -458.00 mschaos 02/14/08
34675 Statue of Thi'zok Object location -352.00, -18.00, -541.00 mschaos 02/14/08
34666 Nak'azar gate Cave entrance -245.85, -62.91, 4.08 Artemiz 02/13/08
34502 Horn of Vul Object location 59.00, 6.00, -394.00 Draakthor 01/24/08
34501 Horn of Kab Object location 4.00, 6.00, -521.00 Draakthor 01/24/08
34500 Horn of Myr Object location -32.00, 6.00, -484.00 Draakthor 01/24/08
34499 Horn of Roehn Object location -32.00, 6.00, -430.00 Draakthor 01/24/08
34498 Horn of Uzu Object location 5.00, 6.00, -393.00 Draakthor 01/24/08
34450 The Temple of Kor-Sha Door -420.88, -148.93, -115.87 Triple 01/17/08
34447 Warlord Hir'roul <The Nak'azar Brigade> Monster Named -398.11, -61.46, 0.15 shiromvp 01/16/08
34446 The Malefic Formation Monster Named 39.41, -23.30, -455.69 shiromvp 01/16/08
34306 Stairs down Cave entrance -390.63, -62.93, 36.51 Rapideyez 12/31/07
34096 Nak'azar Cavern sokokar post Sokokarpost -467.25, -66.74, -73.18 votary 12/12/07
34095 Kylong Plains sokokar post Sokokarpost 185.04, 11.57, -666.92 votary 12/12/07
34048 Chest containing Atrebe's Sniveling Children Quest starter location -93.59, -53.28, 75.08 Daiquiry 12/08/07
33935 Court of Korucust Door -644.05, -66.00, 204.31 barongarrett 12/02/07
33843 a bathezid gatekeeper Monster Heroic -353.87, -18.46, -547.10 Rapideyez 11/29/07
33651 Horn of Zet Object location 97.06, 4.37, -433.00 Wyldchyld 11/23/07
33478 To Kylong Plains Object location 205.00, 10.29, -661.94 Rapideyez 11/19/07

 
Login
Username
Password
Official Project
This is an official community team project supported by EQ2Interface.com
Current Stats
There are currently 36,914 points of interest on 1,285 maps.

New POIs:
» Lost Bat
  Great Divide
» Arbiter's Medi...
  The Awakening - (U...
» a possessed cl...
  A Dream of Clockwork
» An Adventurous...
  A Dream of Clockwork
» An Adventurous...
  A Dream of Clockwork
» An Adventurous...
  A Dream of Clockwork
» An Adventurous...
  A Dream of Clockwork
» An Adventurous...
  A Dream of Clockwork
» An Adventurous...
  A Dream of Clockwork
» Ramp up
  A Dream of Clockwork
» a dream figment
  A Dream of Clockwork
» Burnt gnomish...
  Klak'Anon: Ulterio...
» Burnt gnomish...
  Klak'Anon: Ulterio...
» Burnt gnomish...
  Klak'Anon: Ulterio...
» Burnt gnomish...
  Klak'Anon: Ulterio...

EQ2Interface
EQ2MAP Copyright ©2004 - Hosted by: EQ2Interface.com
Everquest II is a registered Trademark of Daybreak Game Company.